sat.trackr.live / text

‹ back to catalog

STARLINK-5029

NORAD 53887 · 2022-119B

PAYLOAD ACTIVE UNKNOWN

§ Identity

Operator
Country
US
Launch date
2022-09-24
Launch site
AFETR
Launch vehicle
Mass (kg)
RCS (m²)

Purposes: comms

External: N2YO · Heavens-Above · Gunter

§ Orbital elements

Epoch: 2026-09-20T10:47:35.992896Z

Period
94.01 min
Inclination
53.1608°
Eccentricity
0.0001348
Mean motion
15.31700013 rev/d
Perigee alt
469.8 km
Apogee alt
471.7 km
Semi-major
6,848.9 km
B*
2.2807e-5
RAAN
163.0573°
Arg perigee
86.5755°
Mean anomaly
273.5400°
Rev number
22,117

§ Raw data

STARLINK-50291 53887U 22119B   26263.44972214  .00000343  00000+0  22807-4 0  99902 53887  53.1608 163.0573 0001348  86.5755 273.5400 15.31700013221178

JSON: /api/v1/satellites/53887 · /tle

For live sub-satellite position, see the globe view (requires WebGL).

§ Visibility from observer

Set your observer location to see the next 7 days of passes ≥ 10°. The values pass through the URL so the page stays shareable.

No JS? Fill the form by hand. The geolocation button needs JavaScript.